SCP
0 0 0 0 0 0 0 0 0 0 0 0 0 0 1 1 0 0 0 0 0 0 0 0 0 0 1 1 1 0 0 0 0 1 1 1 1 1
1 0 0 0 0 0 0 0 0 0 0 0 0 0 1 1 1 0 0 0 0 0 0 0 0 0 0 0 0 0 0 0 0 0 1 1 1 1
1 1 1 0 0 0 0 0 0 0 0 0 0 0 1 1 1 0 0 0 0 0 0 0 0 0 0 0 0 0 0 0 0 0 0 0 1 1
1 1 1 1 0 0 0 0 0 0 1 0 0 0 1 1 1 0 0 0 0 0 0 0 0 0 0 0 0 0 0 0 0 0 0 0 0 0
1 1 1 1 1 1 0 0 1 1 1 1 1 0 1 1 1 0 0 0 0 0 0 0 0 0 0 0 0 0 0 0 0 0 0 0 0 0
2 2 2 2 1 1 1 1 1 1 1 1 1 0 0 1 0 0 0 0 0 0 0 0 0 0 0 0 0 0 0 0 0 0 0 0 0 0
3 3 3 3 2 2 2 2 2 2 2 2 1 1 0 0 0 0 0 0 0 0 0 0 0 0 0 0 0 0 0 0 0 0 0 0 0 0
3 3 4 3 3 2 2 2 2 2 2 2 2 1 0 0 0 0 0 0 0 0 0 0 0 0 0 0 0 0 0 0 0 0 0 0 0 0
3 3 4 4 3 2 2 2 2 2 2 2 2 1 1 0 0 0 0 0 0 0 0 0 0 0 0 0 0 0 0 0 0 0 0 0 0 0
3 3 4 4 3 2 1 1 1 1 1 1 2 1 1 1 0 0 0 0 0 0 0 0 0 0 0 0 0 0 0 0 0 0 0 0 0 0
3 3 4 4 4 2 1 1 1 1 1 1 1 1 1 0 0 0 0 0 0 0 0 0 0 0 0 0 0 0 0 0 0 0 0 0 0 0
4 4 4 5 4 1 0 0 1 0 0 0 0 0 0 0 0 0 0 0 0 0 0 0 0 0 0 0 0 0 0 0 0 0 0 0 0 0
5 5 5 5 3 1 0 0 0 0 0 0 0 0 0 0 0 0 0 0 0 0 0 0 0 0 0 0 0 0 0 0 0 0 0 0 0 0
5 6 6 4 2 1 0 0 0 0 0 0 0 0 0 0 0 0 0 0 0 0 0 0 0 0 0 0 0 0 0 0 0 0 0 0 0 0
4 5 4 3 1 0 0 0 0 0 0 0 0 0 0 0 0 0 0 0 0 0 0 0 0 0 0 0 0 0 0 0 0 0 0 0 0 0
3 3 3 2 1 1 1 0 0 0 0 0 0 0 0 0 0 0 0 0 0 0 0 0 0 0 0 0 0 0 0 0 0 0 0 0 0 0
3 2 2 1 1 1 2 1 0 0 0 0 0 0 0 0 0 0 0 0 0 0 0 0 0 0 0 0 0 0 0 0 0 0 0 0 0 0
2 2 2 2 2 2 2 2 1 0 0 0 0 0 0 0 0 0 0 0 0 0 0 0 0 0 0 0 0 0 0 0 0 1 0 0 0 0
2 2 2 2 2 2 2 2 2 1 1 1 1 1 1 1 1 1 1 1 0 0 0 0 0 0 0 0 0 0 0 1 1 1 1 0 0 0
2 2 2 2 2 2 2 2 2 2 2 2 1 1 1 1 1 1 1 1 1 0 0 0 0 0 0 1 1 0 0 1 1 1 0 0 0 0
1 2 3 3 3 2 2 2 2 2 2 2 2 1 1 1 1 1 1 1 1 1 0 0 0 0 0 1 1 0 0 0 0 0 0 0 0 0
1 2 2 3 3 2 2 2 2 2 2 2 2 2 2 1 1 1 1 1 1 1 0 0 0 0 0 0 0 0 0 0 0 0 0 0 0 0
1 1 2 2 2 2 2 2 2 2 2 2 2 2 2 2 2 1 1 1 1 1 0 0 0 0 0 0 0 0 0 0 0 0 0 0 0 0
Wind_Speed
2 2 1 1 1 1 2 3 4 2 1 1 1 0 0 1 1 1 1 3 3 3 3 3 4 4 4 5 5 5 4 4 4 5 4 5 5 4
1 2 1 1 1 1 2 2 2 4 2 2 2 1 1 2 2 1 1 3 3 3 2 3 3 3 3 4 4 4 4 5 5 5 6 6 5 5
1 1 1 1 1 1 1 2 1 2 3 1 1 1 2 1 1 1 1 1 1 3 3 3 3 3 3 3 3 3 4 4 4 5 5 6 6 5
1 1 0 1 1 1 2 2 2 2 3 3 1 1 2 2 2 2 2 2 1 3 4 3 3 3 3 3 3 3 3 4 4 4 4 5 5 5
2 2 1 2 1 1 1 2 1 2 2 3 2 1 1 1 1 1 1 1 2 3 4 4 4 4 4 4 4 4 3 3 3 3 3 3 3 4
2 2 2 2 2 2 2 2 2 2 2 2 2 1 1 1 2 1 1 1 2 2 2 3 4 5 5 5 5 5 5 4 4 4 4 3 3 3
2 2 2 3 3 3 2 3 3 2 2 2 2 1 1 2 3 2 2 1 1 1 1 2 2 2 3 5 6 7 6 6 6 6 5 5 4 4
2 2 2 2 2 2 3 5 6 5 4 3 3 3 4 3 3 3 2 1 2 2 2 2 2 3 3 3 6 8 8 8 8 7 7 6 6 5
3 2 1 1 2 1 2 2 3 4 7 6 5 5 5 5 4 4 4 4 4 3 3 3 2 3 4 5 8 9 9 9 9 9 9 8 7 7
3 3 3 2 3 3 2 1 1 2 4 4 5 6 5 5 6 6 5 3 2 1 3 3 3 3 4 4 8 10 11 10 10 10 10 9 9 8
2 3 3 3 5 5 3 2 2 3 3 4 5 5 5 6 5 3 2 2 2 3 2 3 2 2 2 3 5 9 11 11 11 11 10 10 9 8
2 2 4 5 5 6 4 4 3 4 2 2 2 3 4 5 7 6 5 4 2 3 4 3 2 2 2 3 3 3 5 8 10 11 11 11 10 5
3 3 3 5 6 7 6 5 7 5 3 2 2 2 2 3 4 4 5 5 4 4 4 4 3 3 3 2 2 3 4 4 4 6 9 11 11 9
4 4 4 5 6 6 6 6 6 4 2 2 2 3 3 4 4 4 5 6 6 6 5 5 4 4 3 3 3 2 3 3 4 4 4 6 9 11
4 5 5 5 5 5 6 6 5 3 2 2 4 4 4 4 3 2 3 3 4 5 5 4 4 4 4 4 3 3 2 3 4 4 4 5 5 5
3 3 4 4 3 3 3 3 3 3 4 4 4 4 2 2 2 3 3 3 2 4 4 5 5 5 4 5 4 4 4 4 4 5 5 4 4 5
3 1 1 1 2 2 2 3 3 3 4 4 3 3 3 3 3 3 3 2 3 4 4 2 3 4 5 4 3 4 4 4 4 4 4 4 5 5
5 3 4 4 5 5 4 4 4 4 5 4 4 4 4 4 4 3 2 3 4 4 4 3 1 0 1 3 5 5 5 5 4 4 4 4 5 5
5 5 5 5 5 5 5 5 5 5 4 4 4 4 4 4 3 3 3 3 4 4 4 3 2 3 3 5 5 6 5 4 3 3 4 4 5 5
5 5 5 5 4 5 5 4 4 3 3 4 4 4 4 4 4 4 4 4 4 4 3 2 3 4 6 6 4 3 6 5 4 4 3 2 1 1
6 5 5 4 4 4 4 4 4 4 4 4 4 4 4 4 4 4 4 5 4 4 4 5 5 6 3 1 1 2 2 5 5 4 3 2 2 1
5 5 5 5 4 4 4 4 4 4 4 4 4 4 4 4 5 5 4 4 4 5 5 4 2 1 2 3 4 4 3 2 2 4 5 6 5 5
6 5 4 4 4 4 4 4 5 4 4 4 4 4 4 4 4 4 4 4 4 4 3 2 1 1 2 3 3 3 3 2 1 1 2 3 4 5
Wind_Direction
84 88 86 68 84 113 134 142 143 152 214 237 240 257 204 138 127 116 114 120 119 111 110 109 103 100 96 96 93 90 93 99 106 111 113 113 111 118
97 88 72 68 94 93 125 126 132 146 173 215 211 205 193 173 165 146 155 146 147 140 130 119 114 108 106 109 106 102 101 101 101 104 106 106 107 109
75 101 90 106 114 120 118 116 121 130 145 210 219 174 159 173 162 178 161 170 195 177 162 141 124 118 120 123 121 117 116 116 114 116 117 115 113 111
152 116 109 122 119 140 140 149 149 142 142 166 192 172 191 189 182 195 192 190 204 197 186 183 177 166 153 143 140 137 134 129 127 129 130 129 130 128
172 165 177 137 140 161 153 153 159 142 134 148 174 191 202 181 154 220 193 204 213 199 197 207 203 200 193 180 167 159 160 161 153 148 144 144 145 143
184 182 181 173 181 178 163 164 150 133 133 141 158 183 194 189 154 192 238 249 231 210 208 210 215 214 210 201 192 183 182 184 184 179 175 171 168 165
196 202 193 180 179 179 169 169 154 148 150 153 168 168 198 182 198 199 208 224 259 218 206 230 219 231 231 223 212 204 202 201 200 198 194 190 190 189
202 227 213 180 187 182 172 173 172 169 177 175 186 199 214 208 194 189 179 163 252 233 184 236 200 228 238 231 224 217 215 212 208 206 204 202 199 201
203 201 210 202 188 172 171 169 192 197 187 182 191 209 207 204 185 192 196 196 217 210 170 230 222 234 239 235 225 221 217 215 213 211 210 208 208 208
210 201 201 200 207 191 179 189 243 242 220 204 204 214 209 203 196 196 198 205 242 222 167 207 220 227 239 235 228 219 217 217 216 216 215 213 211 211
229 215 206 205 218 194 173 198 258 282 264 232 218 219 217 208 189 161 165 169 237 249 200 188 217 225 240 241 236 222 219 221 221 219 217 216 215 211
239 240 222 216 214 196 188 192 222 249 257 276 259 251 241 226 206 192 187 188 207 238 216 186 202 175 248 254 232 224 223 227 225 224 223 220 214 203
220 235 238 228 220 212 204 206 223 223 223 227 244 253 252 238 222 212 201 192 201 228 216 180 194 190 196 240 250 224 211 217 217 225 226 222 213 199
218 226 232 223 217 217 215 226 226 213 206 220 238 247 247 243 236 225 218 217 217 222 218 187 195 199 193 213 246 239 217 214 207 218 221 219 216 211
224 225 222 219 217 223 233 229 220 210 206 221 235 242 240 241 240 241 243 237 243 244 230 209 208 211 201 212 224 220 220 225 209 211 214 211 209 197
235 243 236 233 224 232 236 233 224 219 214 229 240 248 250 244 242 231 233 234 249 268 250 221 212 207 218 226 218 225 211 209 208 208 208 216 215 206
185 172 201 233 240 244 240 237 227 222 228 236 239 245 247 244 249 239 229 226 230 249 261 257 231 222 216 208 221 230 224 225 215 198 198 220 228 217
160 193 216 223 227 229 231 234 224 224 227 227 233 235 238 239 244 243 226 224 237 245 246 243 222 252 296 260 220 220 224 224 217 197 189 207 231 225
182 213 220 224 227 228 227 226 228 229 225 222 228 234 236 237 238 240 235 236 243 247 248 234 207 196 224 253 256 213 208 216 202 201 202 204 220 222
215 222 227 228 227 226 225 227 232 234 229 230 231 235 232 233 239 241 235 233 242 246 251 239 220 216 220 232 242 242 208 199 198 207 207 204 228 224
223 229 230 228 226 224 225 225 226 228 228 226 230 233 233 229 236 241 239 241 235 235 238 239 237 236 232 178 245 269 250 211 195 191 185 177 184 187
222 225 227 225 219 217 220 222 228 232 230 229 235 237 235 229 233 237 236 234 233 235 240 246 236 199 179 202 229 242 252 253 223 206 193 183 177 192
226 224 223 224 222 219 218 220 224 233 233 233 235 237 235 234 233 232 233 232 234 238 243 247 242 207 213 214 223 231 237 236 218 210 252 255 228 225